Location: Plymouth
(43.7570°N, 71.6890°W)
Time: 21:58:27
(UTC-04:00)

Amateur Radio Satellites - All Passes

Search period start: 28 August 2016 21:28
Search period end: 29 August 2016 21:28
Location: Plymouth, 43.7570°N, 71.6890°W

Satellite Date Start Highest point End Downlink Frequencies (MHz)
Time Altitude Azimuth
FUNcube-1 28 Aug 21:28:53 21:33:15 60° 259° (W) 21:37:34 145.935
Cosmos 2491 28 Aug 21:30:29 21:31:29 10° 311° (NW) 21:32:29 435.465 / 435.565
AIST 1 28 Aug 21:39:19 21:42:08 17° 275° (W) 21:44:57
UWE-3 28 Aug 21:39:36 21:43:34 29° 264° (W) 21:47:29 435.000/436.395/437.385
SEEDS 28 Aug 21:39:48 21:40:13 10° 272° (W) 21:40:38 437.485
CUBEBUG 2 28 Aug 21:45:12 21:48:31 19° 268° (W) 21:51:47 437.445
ZACube-1 28 Aug 21:51:30 21:55:31 32° 263° (W) 21:59:28 437.345
PCSat 28 Aug 21:52:34 21:57:20 32° 250° (WSW) 22:02:04 145.827
ESTCUBE 1 28 Aug 21:53:27 21:55:02 12° 59° (ENE) 21:56:37 437.505/2401.250
DELFI C3 28 Aug 21:57:31 22:01:23 60° 259° (W) 22:05:18 145.870
GONETS M04 28 Aug 21:59:41 22:07:27 33° 67° (ENE) 22:15:09
STRAND 1 28 Aug 22:09:13 22:10:42 11° 304° (NW) 22:12:11 437.568
UNISAT 6 28 Aug 22:17:46 22:21:04 21° 93° (E) 22:24:21 437.425
Cosmos 2499 28 Aug 22:18:04 22:23:57 27° 68° (ENE) 22:29:50 435.465 / 435.565
AUBIESAT-1 28 Aug 22:23:04 22:27:31 47° 66° (ENE) 22:31:57 437.475
HUMSAT D 28 Aug 22:27:22 22:31:28 59° 260° (W) 22:35:33 437.325/437.525
M-CUBED/EXP-1 PRIME 28 Aug 22:29:31 22:34:11 66° 69° (ENE) 22:38:51 437.505
50 SAT 28 Aug 22:30:51 22:31:48 11° 63° (ENE) 22:32:45 437.505
O/OREOS (USA 219) 28 Aug 22:36:05 22:39:52 24° 55° (NE) 22:43:38 437.305
CUBEBUG 1 28 Aug 22:40:59 22:44:24 23° 65° (ENE) 22:47:51 437.445
VELOX 1 28 Aug 22:42:17 22:45:30 20° 64° (ENE) 22:48:44 145.980
PRISM 28 Aug 22:43:38 22:46:54 22° 294° (WNW) 22:50:09 437.425
SO-50 28 Aug 22:45:28 22:49:22 25° 113° (ESE) 22:53:15 436.795
ANTELSAT 28 Aug 22:54:03 22:58:15 52° 100° (E) 23:02:24 437.575/2403.000
SPROUT 28 Aug 22:54:31 22:56:36 13° 62° (ENE) 22:58:41 437.525
DX 1 28 Aug 22:55:41 22:58:45 19° 63° (ENE) 23:01:50 434.975-435.025
RS-15 28 Aug 22:58:40 23:00:29 10° 90° (E) 23:02:20 29.354- 29.394
DUCHIFAT 1 28 Aug 23:14:59 23:15:58 11° 89° (E) 23:16:58 145.980
CUSAT 1 28 Aug 23:16:03 23:18:54 43° 94° (E) 23:22:29 437.405
QB50P2 28 Aug 23:18:10 23:20:35 15° 91° (E) 23:22:58 145.880/145.840
POLYITAN 1 28 Aug 23:20:40 23:23:05 15° 91° (E) 23:25:30 437.675
TIGRISAT 28 Aug 23:24:37 23:28:55 77° 285° (WNW) 23:33:09 435.000
ESTCUBE 1 28 Aug 23:26:41 23:31:10 83° 255° (WSW) 23:35:42 437.505/2401.250
NANOSAT C BR1 28 Aug 23:27:53 23:30:37 17° 92° (E) 23:33:19 145.865
AISAT 28 Aug 23:29:57 23:34:21 62° 73° (ENE) 23:38:47 437.250
UKube-1 28 Aug 23:32:48 23:36:42 34° 68° (ENE) 23:40:38 .
UNISAT 6 28 Aug 23:53:59 23:57:54 35° 291° (WNW) 00:01:46 437.425
GONETS M04 28 Aug 23:56:08 00:04:48 61° 269° (W) 00:13:25
AUBIESAT-1 28 Aug 23:58:39 00:02:07 21° 262° (W) 00:05:36 437.475
50 SAT 29 Aug 00:01:23 00:04:54 56° 260° (W) 00:08:27 437.505
BUGSAT 1 29 Aug 00:03:43 00:06:18 16° 92° (E) 00:08:51 437.445
M-CUBED/EXP-1 PRIME 29 Aug 00:06:20 00:09:03 15° 265° (W) 00:11:47 437.505
Cosmos 2499 29 Aug 00:10:37 00:17:27 55° 268° (W) 00:24:23 435.465 / 435.565
QB50P1 29 Aug 00:11:37 00:15:46 53° 100° (E) 00:19:52 145.935-145.965
O/OREOS (USA 219) 29 Aug 00:15:08 00:19:24 39° 254° (WSW) 00:23:41 437.305
JAS-2 29 Aug 00:16:18 00:22:41 39° 97° (E) 00:29:38 435.910
CUBEBUG 1 29 Aug 00:16:23 00:20:28 37° 262° (W) 00:24:37 437.445
VELOX 1 29 Aug 00:17:25 00:21:39 44° 261° (W) 00:25:57 145.980
POPSAT HIP 1 29 Aug 00:21:43 00:25:56 68° 101° (ESE) 00:30:06 437.405
SO-50 29 Aug 00:24:55 00:29:36 48° 310° (NW) 00:34:16 436.795
DANDE 29 Aug 00:25:01 00:27:36 83° 279° (W) 00:30:31 436.750
SPROUT 29 Aug 00:27:43 00:32:00 66° 258° (WSW) 00:36:19 437.525
DX 1 29 Aug 00:30:25 00:34:36 45° 261° (W) 00:38:51 434.975-435.025
ANTELSAT 29 Aug 00:31:57 00:34:34 16° 297° (WNW) 00:37:09 437.575/2403.000
TISAT 1 29 Aug 00:42:25 00:46:23 40° 70° (ENE) 00:50:22 437.305
DUCHIFAT 1 29 Aug 00:47:57 00:52:08 69° 286° (WNW) 00:56:17 145.980
QB50P2 29 Aug 00:52:35 00:56:41 50° 288° (WNW) 01:00:44 145.880/145.840
SWISSCUBE 29 Aug 00:52:46 00:55:15 14° 59° (ENE) 00:57:44 437.505
POLYITAN 1 29 Aug 00:55:06 00:59:11 50° 288° (WNW) 01:03:14 437.675
Oscar 19 29 Aug 00:55:18 00:57:33 13° 88° (E) 00:59:48 437.125/150
RS-15 29 Aug 00:58:47 01:09:50 56° 112° (ESE) 01:21:29 29.354- 29.394
NANOSAT C BR1 29 Aug 01:02:33 01:06:34 44° 289° (WNW) 01:10:32 145.865
BEESAT 29 Aug 01:08:54 01:12:06 18° 62° (ENE) 01:15:18 436.000
AISAT 29 Aug 01:09:01 01:11:14 13° 270° (W) 01:13:27 437.250
UKube-1 29 Aug 01:09:21 01:12:48 23° 265° (W) 01:16:17 .
PHONESAT 2.4 29 Aug 01:14:32 01:16:25 15° 155° (SSE) 01:18:18 2401.200-2431.200
BUGSAT 1 29 Aug 01:37:57 01:41:55 44° 289° (WNW) 01:45:47 437.445
QB50P1 29 Aug 01:48:37 01:51:07 15° 297° (WNW) 01:53:36 145.935-145.965
ITUPSAT 1 29 Aug 01:55:34 02:00:08 47° 70° (ENE) 02:04:42 437.325
GONETS M04 29 Aug 01:57:37 01:59:37 11° 290° (WNW) 02:01:36
POPSAT HIP 1 29 Aug 01:59:21 02:01:10 13° 299° (WNW) 02:02:58 437.405
JAS-2 29 Aug 02:01:20 02:07:43 45° 292° (WNW) 02:14:45 435.910
SO-50 29 Aug 02:09:32 02:11:14 12° 331° (NNW) 02:12:56 436.795
Gurwin Techsat 1B 29 Aug 02:14:20 02:19:07 33° 96° (E) 02:23:51 435.225
TISAT 1 29 Aug 02:19:08 02:22:11 19° 267° (W) 02:25:16 437.305
SWISSCUBE 29 Aug 02:27:42 02:32:27 75° 257° (WSW) 02:37:13 437.505
Oscar 19 29 Aug 02:32:16 02:37:31 83° 284° (WNW) 02:42:42 437.125/150
KKS-1 29 Aug 02:32:43 02:35:08 14° 61° (ENE) 02:37:33 437.445
BEESAT 29 Aug 02:44:48 02:49:27 56° 259° (W) 02:54:10 436.000
MOZHAYETS 4 29 Aug 02:46:58 02:50:37 24° 66° (ENE) 02:54:15
PHONESAT 2.4 29 Aug 02:49:30 02:52:19 38° 171° (S) 02:55:08 2401.200-2431.200
STARS 29 Aug 03:04:38 03:07:12 15° 62° (ENE) 03:09:45 437.465
RS-15 29 Aug 03:11:10 03:22:31 53° 318° (NW) 03:34:30 29.354- 29.394
ITUPSAT 1 29 Aug 03:34:46 03:38:12 20° 267° (W) 03:41:40 437.325
Cosmos 2491 29 Aug 03:36:14 03:42:27 20° 60° (ENE) 03:48:38 435.465 / 435.565
ITAMSAT 1 29 Aug 03:49:26 03:54:38 73° 104° (ESE) 03:59:48 435.822/435.867
Gurwin Techsat 1B 29 Aug 03:54:16 03:59:02 34° 293° (WNW) 04:03:47 435.225
AO-7 29 Aug 03:54:21 04:02:05 40° 99° (E) 04:09:43 29.400- 29.500
KKS-1 29 Aug 04:06:42 04:11:10 66° 258° (WSW) 04:15:39 437.445
CUBESAT XI-V 29 Aug 04:10:48 04:14:27 24° 65° (ENE) 04:18:07 437.345
Oscar 19 29 Aug 04:13:54 04:16:00 12° 304° (WNW) 04:18:06 437.125/150
MOZHAYETS 4 29 Aug 04:23:23 04:27:35 36° 263° (W) 04:31:49
AO-85 29 Aug 04:23:44 04:28:00 25° 113° (ESE) 04:32:07 145.980
PHONESAT 2.4 29 Aug 04:25:35 04:28:25 39° 188° (S) 04:31:15 2401.200-2431.200
STARS 29 Aug 04:38:41 04:43:04 61° 259° (W) 04:47:29 437.465
YUBILEINY 29 Aug 04:53:01 04:59:11 22° 78° (ENE) 05:05:21 435.215
HORYU 2 29 Aug 05:18:58 05:22:52 30° 97° (E) 05:26:45 437.375
RS-15 29 Aug 05:28:48 05:38:45 28° 350° (N) 05:48:57 29.354- 29.394
ITAMSAT 1 29 Aug 05:30:20 05:33:31 17° 301° (WNW) 05:36:40 435.822/435.867
Cosmos 2491 29 Aug 05:31:46 05:40:40 88° 83° (E) 05:49:32 435.465 / 435.565
GOMX 1 29 Aug 05:45:40 05:48:19 14° 86° (E) 05:50:54 467.674
AO-7 29 Aug 05:47:05 05:54:58 50° 298° (WNW) 06:02:49 29.400- 29.500
CUBESAT XI-V 29 Aug 05:47:19 05:51:36 38° 263° (W) 05:55:57 437.345
NOAA 18 29 Aug 05:55:09 05:57:44 13° 89° (E) 06:00:17 137.9125
PHONESAT 2.4 29 Aug 06:02:19 06:04:21 17° 204° (SSW) 06:06:22 2401.200-2431.200
AO-85 29 Aug 06:03:07 06:08:16 52° 309° (NW) 06:13:06 145.980
Cosmos 2504 29 Aug 06:05:14 06:11:01 21° 81° (E) 06:16:34 435.465 / 435.565
STRAND 1 29 Aug 06:06:44 06:10:43 24° 63° (ENE) 06:14:43 437.568
BRITE-PL 29 Aug 06:15:12 06:20:50 56° 99° (E) 06:26:18 437.365/2234.400
LilacSat-2 29 Aug 06:28:22 06:31:37 27° 96° (E) 06:34:49 437.200
Cubesat XI-IV 29 Aug 06:29:16 06:33:58 31° 96° (E) 06:38:38 437.490
NOAA 15 29 Aug 06:36:34 06:41:42 46° 99° (E) 06:46:48 137.62
CUTE-I 29 Aug 06:40:26 06:45:25 39° 98° (E) 06:50:22 437.470
YUBILEINY 29 Aug 06:46:00 06:54:52 83° 279° (W) 07:03:45 435.215
HORYU 2 29 Aug 06:55:37 06:59:20 27° 293° (WNW) 07:03:03 437.375
SO-50 29 Aug 07:14:58 07:19:10 32° 45° (NE) 07:23:14 436.795
DOVE 4 29 Aug 07:20:34 07:25:27 47° 98° (E) 07:30:01 437.250
GOMX 1 29 Aug 07:21:37 07:27:05 81° 285° (WNW) 07:32:14 467.674
Cosmos 2491 29 Aug 07:30:25 07:36:16 20° 283° (WNW) 07:42:09 435.465 / 435.565
NOAA 18 29 Aug 07:33:34 07:39:04 84° 286° (WNW) 07:44:31 137.9125
ISS 29 Aug 07:37:16 07:39:33 18° 134° (SE) 07:41:50 145.825
AO-7 29 Aug 07:42:30 07:45:47 13° 320° (NW) 07:49:04 29.400- 29.500
STRAND 1 29 Aug 07:44:42 07:49:37 47° 261° (W) 07:54:32 437.568
SEEDS 29 Aug 07:44:54 07:45:55 11° 89° (E) 07:46:57 437.485
RS-15 29 Aug 07:45:20 07:56:15 34° 25° (NNE) 08:07:09 29.354- 29.394
AO-85 29 Aug 07:47:36 07:49:46 13° 329° (NNW) 07:51:53 145.980
CINEMA 3 29 Aug 07:50:15 07:53:57 24° 93° (E) 07:57:30 145.822/145.860
BRITE-PL 29 Aug 07:54:24 07:58:52 24° 297° (WNW) 08:03:17 437.365/2234.400
Cosmos 2504 29 Aug 07:55:08 08:03:34 80° 278° (W) 08:11:26 435.465 / 435.565
PRISM 29 Aug 07:58:39 08:02:11 29° 68° (ENE) 08:05:47 437.425
LilacSat-2 29 Aug 08:02:50 08:05:48 22° 292° (WNW) 08:08:45 437.200
HO-68 29 Aug 08:06:04 08:12:34 36° 96° (E) 08:19:00 435.675
CANX-2 29 Aug 08:07:25 08:11:14 32° 96° (E) 08:15:02 2200.000
Cubesat XI-IV 29 Aug 08:09:13 08:14:03 36° 293° (WNW) 08:18:52 437.490
AAUSAT CUBESAT 2 29 Aug 08:11:01 08:12:24 11° 89° (E) 08:13:47 437.432
CUTE 1.7 + AOD 2 29 Aug 08:13:12 08:17:01 32° 96° (E) 08:20:49 437.475
NOAA 15 29 Aug 08:16:53 08:21:12 26° 297° (WNW) 08:25:30 137.62
COMPASS 1 29 Aug 08:19:23 08:22:20 18° 92° (E) 08:25:16 437.405
CUTE-I 29 Aug 08:20:47 08:25:19 29° 295° (WNW) 08:29:49 437.470
AIST 1 29 Aug 08:31:44 08:35:16 25° 88° (E) 08:38:50
YUBILEINY 29 Aug 08:47:14 08:53:09 19° 301° (WNW) 08:59:05 435.215
TIGRISAT 29 Aug 08:50:27 08:52:25 13° 61° (ENE) 08:54:23 435.000
BEESAT 3 29 Aug 08:52:36 08:55:51 26° 115° (ESE) 08:59:10 437.485
SO-50 29 Aug 08:55:29 08:59:37 34° 244° (WSW) 09:03:39 436.795
DOVE 4 29 Aug 08:58:54 09:02:46 22° 297° (WNW) 09:06:28 437.250
GOMX 1 29 Aug 09:01:56 09:04:12 13° 303° (WNW) 09:06:26 467.674
Oscar 11 29 Aug 09:06:32 09:09:41 19° 93° (E) 09:12:48 145.826/435.025
ISS 29 Aug 09:12:27 09:15:42 65° 330° (NNW) 09:19:00 145.825
FUNcube-1 29 Aug 09:16:11 09:19:24 22° 94° (E) 09:22:37 145.935
NOAA 18 29 Aug 09:16:16 09:18:53 14° 305° (NW) 09:21:29 137.9125
DANDE 29 Aug 09:17:06 09:19:25 12° 66° (ENE) 09:21:57 436.750
UNISAT 6 29 Aug 09:17:39 09:21:21 25° 66° (ENE) 09:24:58 437.425
SEEDS 29 Aug 09:17:53 09:22:04 69° 286° (WNW) 09:26:17 437.485
CINEMA 3 29 Aug 09:27:07 09:31:09 32° 292° (WNW) 09:35:01 145.822/145.860
UWE-3 29 Aug 09:27:21 09:31:25 48° 99° (E) 09:35:25 435.000/436.395/437.385
CUBEBUG 2 29 Aug 09:33:14 09:37:30 87° 108° (ESE) 09:41:39 437.445
PRISM 29 Aug 09:34:08 09:37:29 24° 265° (W) 09:40:54 437.425
DELFI C3 29 Aug 09:34:44 09:37:10 15° 92° (E) 09:39:36 145.870
ZACube-1 29 Aug 09:38:07 09:42:04 40° 98° (E) 09:45:57 437.345
CANX-2 29 Aug 09:43:32 09:46:57 24° 293° (WNW) 09:50:22 2200.000
CUSAT 1 29 Aug 09:44:08 09:50:28 52° 76° (ENE) 09:57:58 437.405
AAUSAT CUBESAT 2 29 Aug 09:44:10 09:48:18 64° 286° (WNW) 09:52:26 437.432
CUTE 1.7 + AOD 2 29 Aug 09:49:18 09:52:43 24° 293° (WNW) 09:56:07 437.475
Cosmos 2504 29 Aug 09:53:16 09:58:11 17° 299° (WNW) 10:02:56 435.465 / 435.565
HO-68 29 Aug 09:53:37 10:00:25 48° 295° (WNW) 10:07:10 435.675
ANTELSAT 29 Aug 09:53:37 09:58:05 55° 73° (ENE) 10:02:29 437.575/2403.000
COMPASS 1 29 Aug 09:54:08 09:58:03 39° 289° (WNW) 10:01:57 437.405
RS-15 29 Aug 09:58:35 10:11:03 79° 53° (NE) 10:23:17 29.354- 29.394
DUCHIFAT 1 29 Aug 10:08:37 10:09:45 11° 60° (ENE) 10:10:52 145.980
AIST 1 29 Aug 10:08:54 10:12:44 30° 286° (WNW) 10:16:37
HUMSAT D 29 Aug 10:10:06 10:13:01 19° 93° (E) 10:15:56 437.325/437.525
QB50P2 29 Aug 10:12:28 10:14:49 15° 62° (ENE) 10:17:11 145.880/145.840
BEESAT 2 29 Aug 10:14:41 10:18:38 81° 304° (NW) 10:22:39 435.950
POLYITAN 1 29 Aug 10:14:56 10:17:19 15° 63° (ENE) 10:19:44 437.675
NANOSAT C BR1 29 Aug 10:21:37 10:24:15 16° 63° (ENE) 10:26:52 145.865
TIGRISAT 29 Aug 10:23:56 10:28:32 77° 258° (WSW) 10:33:03 435.000
BEESAT 3 29 Aug 10:29:53 10:33:25 32° 312° (NW) 10:37:00 437.485
JAS-2 29 Aug 10:33:23 10:36:25 15° 56° (NE) 10:39:35 435.910
Oscar 11 29 Aug 10:41:56 10:45:58 40° 289° (WNW) 10:49:59 145.826/435.025
ISS 29 Aug 10:49:57 10:52:38 22° 350° (N) 10:55:19 145.825
FUNcube-1 29 Aug 10:52:01 10:55:44 32° 290° (WNW) 10:59:24 145.935
PCSat 29 Aug 10:52:32 10:57:01 27° 109° (ESE) 11:01:32 145.827
UNISAT 6 29 Aug 10:53:40 10:57:53 36° 263° (W) 11:02:03 437.425
BUGSAT 1 29 Aug 10:55:01 10:57:29 15° 63° (ENE) 10:59:57 437.445
DANDE 29 Aug 10:57:05 11:02:35 77° 80° (E) 11:09:46 436.750
Cosmos 2499 29 Aug 10:57:20 11:03:08 22° 82° (E) 11:08:39 435.465 / 435.565
GONETS M04 29 Aug 11:02:57 11:10:31 34° 84° (E) 11:18:09
UWE-3 29 Aug 11:04:57 11:07:29 16° 297° (WNW) 11:10:01 435.000/436.395/437.385
QB50P1 29 Aug 11:04:58 11:09:04 46° 72° (ENE) 11:13:10 145.935-145.965
AIST 2 29 Aug 11:05:13 11:07:31 15° 110° (ESE) 11:09:49 435.215
DELFI C3 29 Aug 11:08:25 11:12:14 43° 288° (WNW) 11:16:02 145.870
POPSAT HIP 1 29 Aug 11:15:03 11:19:14 59° 74° (ENE) 11:23:27 437.405
ZACube-1 29 Aug 11:15:11 11:18:04 18° 295° (WNW) 11:20:56 437.345
ESTCUBE 1 29 Aug 11:18:41 11:21:55 19° 92° (E) 11:25:08 437.505/2401.250
AISAT 29 Aug 11:21:36 11:22:30 11° 88° (E) 11:23:26 437.250
CUSAT 1 29 Aug 11:26:32 11:32:19 33° 269° (W) 11:38:57 437.405
50 SAT 29 Aug 11:30:53 11:31:17 10° 90° (E) 11:31:42 437.505
ANTELSAT 29 Aug 11:32:20 11:35:06 16° 269° (W) 11:37:51 437.575/2403.000
AUBIESAT-1 29 Aug 11:35:55 11:39:11 24° 99° (E) 11:42:15 437.475
DUCHIFAT 1 29 Aug 11:40:32 11:44:48 81° 259° (WSW) 11:49:04 145.980
M-CUBED/EXP-1 PRIME 29 Aug 11:42:52 11:46:39 36° 102° (ESE) 11:50:10 437.505
HUMSAT D 29 Aug 11:45:00 11:48:46 37° 289° (WNW) 11:52:33 437.325/437.525
HO-68 29 Aug 11:45:33 11:46:25 10° 316° (NW) 11:47:17 435.675
QB50P2 29 Aug 11:45:56 11:50:09 58° 259° (W) 11:54:24 145.880/145.840
POLYITAN 1 29 Aug 11:48:27 11:52:40 58° 259° (W) 11:56:54 437.675
BEESAT 2 29 Aug 11:55:18 11:57:07 13° 324° (NW) 11:58:58 435.950
NANOSAT C BR1 29 Aug 11:55:25 11:59:34 51° 260° (W) 12:03:45 145.865
CUBEBUG 1 29 Aug 12:03:24 12:07:30 35° 97° (E) 12:11:32 437.445
VELOX 1 29 Aug 12:06:11 12:10:09 30° 96° (E) 12:14:04 145.980
RS-15 29 Aug 12:12:08 12:22:25 33° 256° (WSW) 12:32:32 29.354- 29.394
Oscar 19 29 Aug 12:12:38 12:16:37 23° 63° (ENE) 12:20:36 437.125/150
SPROUT 29 Aug 12:13:10 12:16:13 19° 93° (E) 12:19:14 437.525
JAS-2 29 Aug 12:15:29 12:20:42 79° 257° (WSW) 12:26:21 435.910
DX 1 29 Aug 12:17:26 12:21:10 27° 96° (E) 12:24:52 434.975-435.025
ISS 29 Aug 12:27:09 12:29:52 23° 11° (N) 12:32:34 145.825
BUGSAT 1 29 Aug 12:28:14 12:32:25 56° 259° (W) 12:36:36 437.445
PCSat 29 Aug 12:34:56 12:40:10 47° 307° (NW) 12:45:25 145.827
DANDE 29 Aug 12:41:19 12:45:06 18° 271° (W) 12:49:27 436.750
AIST 2 29 Aug 12:41:28 12:45:31 58° 307° (NW) 12:49:37 435.215
QB50P1 29 Aug 12:42:21 12:45:05 17° 268° (W) 12:47:50 145.935-145.965
Cosmos 2499 29 Aug 12:47:27 12:55:33 73° 280° (W) 13:03:04 435.465 / 435.565
O/OREOS (USA 219) 29 Aug 12:50:30 12:53:44 20° 101° (E) 12:57:00 437.305
POPSAT HIP 1 29 Aug 12:53:21 12:55:24 13° 270° (W) 12:57:26 437.405
UKube-1 29 Aug 12:53:59 12:58:14 51° 100° (E) 13:02:26 .
AO-85 29 Aug 12:54:00 12:57:46 27° 43° (NE) 13:01:16 145.980
ESTCUBE 1 29 Aug 12:54:36 12:58:56 45° 289° (WNW) 13:03:15 437.505/2401.250
AISAT 29 Aug 12:55:03 12:59:32 78° 285° (WNW) 13:03:58 437.250
GONETS M04 29 Aug 12:58:23 13:06:55 56° 284° (WNW) 13:15:35
50 SAT 29 Aug 13:01:37 13:05:12 55° 286° (WNW) 13:08:46 437.505
AO-7 29 Aug 13:06:51 13:11:26 16° 44° (NE) 13:16:00 29.400- 29.500
AUBIESAT-1 29 Aug 13:10:09 13:13:39 28° 298° (WNW) 13:16:55 437.475
M-CUBED/EXP-1 PRIME 29 Aug 13:17:50 13:20:55 21° 302° (WNW) 13:23:51 437.505
ITAMSAT 1 29 Aug 13:31:32 13:34:59 18° 60° (ENE) 13:38:26 435.822/435.867
Gurwin Techsat 1B 29 Aug 13:36:31 13:41:44 59° 72° (ENE) 13:46:59 435.225
CUBEBUG 1 29 Aug 13:40:03 13:43:36 24° 294° (WNW) 13:47:07 437.445
VELOX 1 29 Aug 13:42:44 13:46:32 28° 293° (WNW) 13:50:18 145.980
SPROUT 29 Aug 13:48:18 13:52:19 40° 289° (WNW) 13:56:19 437.525
Oscar 19 29 Aug 13:50:35 13:55:36 50° 261° (W) 14:00:39 437.125/150
DX 1 29 Aug 13:53:29 13:57:19 30° 293° (WNW) 14:01:09 434.975-435.025
ITUPSAT 1 29 Aug 13:57:27 13:58:26 11° 88° (E) 13:59:25 437.325
TISAT 1 29 Aug 14:00:12 14:04:23 59° 101° (E) 14:08:29 437.305
ISS 29 Aug 14:03:28 14:06:46 69° 30° (NNE) 14:10:02 145.825
PCSat 29 Aug 14:23:04 14:24:57 12° 329° (NNW) 14:26:52 145.827
AIST 2 29 Aug 14:23:50 14:24:54 11° 328° (NNW) 14:25:58 435.215
SWISSCUBE 29 Aug 14:27:00 14:30:55 25° 95° (E) 14:34:49 437.505
O/OREOS (USA 219) 29 Aug 14:28:31 14:32:48 43° 299° (WNW) 14:37:09 437.305
UKube-1 29 Aug 14:31:05 14:33:53 17° 297° (WNW) 14:36:40 .
AO-85 29 Aug 14:34:24 14:38:15 34° 244° (WSW) 14:41:52 145.980
BEESAT 29 Aug 14:43:38 14:47:56 32° 97° (E) 14:52:12 436.000
Cosmos 2499 29 Aug 14:46:03 14:49:59 14° 301° (WNW) 14:53:49 435.465 / 435.565
AO-7 29 Aug 14:54:24 15:02:34 62° 65° (ENE) 15:10:46 29.400- 29.500
YUBILEINY 29 Aug 15:01:51 15:04:04 11° 50° (NE) 15:06:17 435.215
GONETS M04 29 Aug 15:03:18 15:06:09 12° 309° (NW) 15:09:01
ITAMSAT 1 29 Aug 15:08:48 15:13:56 65° 258° (WSW) 15:19:07 435.822/435.867
Gurwin Techsat 1B 29 Aug 15:18:23 15:22:05 19° 269° (W) 15:25:47 435.225
ITUPSAT 1 29 Aug 15:32:06 15:36:54 86° 282° (WNW) 15:41:41 437.325
TISAT 1 29 Aug 15:37:19 15:39:33 14° 298° (WNW) 15:41:45 437.305
ISS 29 Aug 15:40:44 15:42:54 16° 227° (SW) 15:45:03 145.825
KKS-1 29 Aug 15:57:00 16:00:25 21° 94° (E) 16:03:47 437.445
SWISSCUBE 29 Aug 16:04:24 16:08:48 37° 291° (WNW) 16:13:10 437.505
MOZHAYETS 4 29 Aug 16:16:32 16:20:57 45° 99° (E) 16:25:21
HORYU 2 29 Aug 16:18:04 16:22:04 34° 68° (ENE) 16:26:05 437.375
BEESAT 29 Aug 16:21:32 16:25:37 29° 294° (WNW) 16:29:42 436.000
NOAA 15 29 Aug 16:21:58 16:24:12 13° 56° (NE) 16:26:26 137.62
STARS 29 Aug 16:27:22 16:30:45 21° 94° (E) 16:34:07 437.465
CUTE-I 29 Aug 16:28:01 16:29:38 11° 55° (NE) 16:31:16 437.470
Cosmos 2491 29 Aug 16:41:08 16:47:04 21° 77° (ENE) 16:53:00 435.465 / 435.565
AO-7 29 Aug 16:48:32 16:55:46 32° 264° (W) 17:03:02 29.400- 29.500
GOMX 1 29 Aug 16:54:21 16:57:49 18° 60° (ENE) 17:01:24 467.674
YUBILEINY 29 Aug 16:54:48 17:03:21 53° 75° (ENE) 17:11:49 435.215
BEESAT 2 29 Aug 16:54:57 16:57:03 14° 37° (NE) 16:59:08 435.950
BEESAT 3 29 Aug 17:08:05 17:11:30 26° 46° (NE) 17:14:52 437.485
LilacSat-2 29 Aug 17:12:13 17:14:48 18° 66° (ENE) 17:17:24 437.200
ITUPSAT 1 29 Aug 17:12:29 17:13:58 11° 303° (WNW) 17:15:27 437.325
NOAA 18 29 Aug 17:21:38 17:26:26 31° 64° (ENE) 17:31:14 137.9125
BRITE-PL 29 Aug 17:26:53 17:31:47 66° 73° (ENE) 17:37:07 437.365/2234.400
KKS-1 29 Aug 17:32:57 17:37:07 39° 290° (WNW) 17:41:15 437.445
CUBESAT XI-V 29 Aug 17:42:02 17:46:35 46° 99° (E) 17:51:07 437.345
Cosmos 2504 29 Aug 17:46:37 17:53:17 38° 72° (ENE) 17:59:51 435.465 / 435.565
Cubesat XI-IV 29 Aug 17:52:22 17:57:35 58° 71° (ENE) 18:02:50 437.490
MOZHAYETS 4 29 Aug 17:54:28 17:57:48 20° 296° (WNW) 18:01:08
HORYU 2 29 Aug 17:55:01 17:58:40 25° 265° (W) 18:02:20 437.375
NOAA 15 29 Aug 17:57:52 18:03:08 83° 74° (ENE) 18:08:27 137.62
STARS 29 Aug 18:03:10 18:07:14 37° 291° (WNW) 18:11:16 437.465
CUTE-I 29 Aug 18:03:27 18:08:46 73° 73° (ENE) 18:14:05 437.470
DOVE 4 29 Aug 18:26:09 18:31:14 55° 72° (ENE) 18:36:26 437.250
GOMX 1 29 Aug 18:30:08 18:35:15 70° 259° (W) 18:40:41 467.674
BEESAT 2 29 Aug 18:31:26 18:35:29 89° 58° (ENE) 18:39:29 435.950
Cosmos 2491 29 Aug 18:33:59 18:42:44 85° 280° (W) 18:51:34 435.465 / 435.565
HO-68 29 Aug 18:36:23 18:42:32 32° 60° (ENE) 18:48:43 435.675
LilacSat-2 29 Aug 18:45:17 18:48:51 36° 262° (W) 18:52:25 437.200
BEESAT 3 29 Aug 18:45:36 18:49:11 33° 244° (WSW) 18:52:46 437.485
YUBILEINY 29 Aug 18:52:07 18:59:48 36° 276° (W) 19:07:24 435.215
CINEMA 3 29 Aug 18:52:18 18:56:38 30° 68° (ENE) 19:00:54 145.822/145.860
CUBEBUG 2 29 Aug 18:59:53 19:00:33 10° 59° (ENE) 19:01:13 437.445
CANX-2 29 Aug 19:01:34 19:05:06 27° 68° (ENE) 19:08:39 2200.000
NOAA 18 29 Aug 19:01:47 19:06:57 40° 262° (W) 19:12:08 137.9125
CUTE 1.7 + AOD 2 29 Aug 19:07:14 19:10:46 27° 68° (ENE) 19:14:19 437.475
BRITE-PL 29 Aug 19:07:49 19:10:51 16° 273° (W) 19:14:01 437.365/2234.400
COMPASS 1 29 Aug 19:12:04 19:14:30 15° 64° (ENE) 19:16:58 437.405
CUBESAT XI-V 29 Aug 19:20:09 19:23:38 21° 296° (WNW) 19:27:06 437.345
AIST 2 29 Aug 19:23:47 19:26:49 19° 41° (NE) 19:29:52 435.215
Cubesat XI-IV 29 Aug 19:34:16 19:38:02 19° 268° (W) 19:41:49 437.490
PCSat 29 Aug 19:38:14 19:43:06 32° 48° (NE) 19:47:56 145.827
Cosmos 2504 29 Aug 19:40:03 19:46:38 40° 272° (W) 19:53:11 435.465 / 435.565
NOAA 15 29 Aug 19:41:15 19:43:34 13° 272° (W) 19:45:54 137.62
CUTE-I 29 Aug 19:46:22 19:49:21 15° 270° (W) 19:52:22 437.470
STRAND 1 29 Aug 19:53:33 19:58:33 53° 100° (E) 20:03:32 437.568
Oscar 11 29 Aug 20:02:53 20:05:51 19° 65° (ENE) 20:08:51 145.826/435.025
DOVE 4 29 Aug 20:05:23 20:09:14 21° 270° (W) 20:13:09 437.250
SEEDS 29 Aug 20:10:26 20:14:36 87° 259° (W) 20:18:47 437.485
FUNcube-1 29 Aug 20:12:54 20:16:18 22° 66° (ENE) 20:19:38 145.935
AIST 1 29 Aug 20:13:46 20:18:12 75° 81° (E) 20:22:34
HO-68 29 Aug 20:22:52 20:29:54 56° 259° (WSW) 20:36:59 435.675
DELFI C3 29 Aug 20:23:13 20:24:35 12° 62° (ENE) 20:25:57 145.870
UWE-3 29 Aug 20:25:02 20:29:23 48° 73° (ENE) 20:33:40 435.000/436.395/437.385
CINEMA 3 29 Aug 20:29:05 20:33:39 34° 264° (W) 20:38:10 145.822/145.860
CUBEBUG 2 29 Aug 20:31:46 20:36:27 84° 75° (ENE) 20:41:01 437.445
ZACube-1 29 Aug 20:34:48 20:38:55 39° 71° (ENE) 20:42:58 437.345
Cosmos 2491 29 Aug 20:35:06 20:41:01 20° 301° (WNW) 20:46:59 435.465 / 435.565
AAUSAT CUBESAT 2 29 Aug 20:35:12 20:39:18 85° 259° (WSW) 20:43:26 437.432
CANX-2 29 Aug 20:37:18 20:40:54 27° 265° (W) 20:44:31 2200.000
CUTE 1.7 + AOD 2 29 Aug 20:42:57 20:46:33 27° 265° (W) 20:50:10 437.475
COMPASS 1 29 Aug 20:45:40 20:49:40 50° 261° (W) 20:53:42 437.405
AIST 2 29 Aug 21:01:32 21:05:40 60° 240° (WSW) 21:09:47 435.215
HUMSAT D 29 Aug 21:03:06 21:05:44 17° 64° (ENE) 21:08:22 437.325/437.525
GONETS M04 29 Aug 21:11:23 21:17:12 19° 58° (ENE) 21:22:59
PRISM 29 Aug 21:13:26 21:17:22 38° 98° (E) 21:21:17 437.425
